Find Local Weather

World > North America > United States > Illinois

Barrington, Illinois Regional Weather

Lat: 42.15N, Lon: 88.13W
Wx Zone: ILZ006
Warning FLW WEATHER ALERT - (More Info. Click Here) Warning
Feedback
Expires:201807200800;;755834
ASUS43 KLOT 200709
RWRIL 

ILLINOIS REGIONAL WEATHER ROUNDUP
NATIONAL WEATHER SERVICE CHICAGO/ROMEOVILLE IL
200 AM CDT FRI JUL 20 2018

NOTE: "FAIR" INDICATES FEW OR NO CLOUDS BELOW 12,000 FEET WITH NO
SIGNIFICANT WEATHER AND/OR OBSTRUCTIONS TO VISIBILITY.

* THESE STATIONS ARE NOT UNDER NWS QUALITY CONTROL. THEY ALSO MAY NOT
  REPORT WEATHER SUCH AS PRECIPITATION OR FOG.


ILZ005-006-012>014-019>023-200800-
NORTHEAST ILLINOIS
  
CITY           SKY/WX    TMP DP  RH WIND       PRES   REMARKS
CHICAGO-OHARE  MOCLDY    78  63  59 S16G24    29.72F HX  80           
CHICAGO-MIDWAY MOCLDY    78  65  63 S15G23    29.73F HX  80           
AURORA         CLOUDY    74  65  73 S14       29.72F                  
LANSING*       CLOUDY    76  65  68 S14G20    29.76F                  
JOLIET*        FAIR      76  66  71 S9G17     29.74F                  
WAUKEGAN       CLOUDY    73  69  87 S13       29.71F THUNDER          
DUPAGE AIRPORT FAIR      74  65  73 S16G23    29.72F                  
KANKAKEE*      FAIR      74  64  72 S8        29.78F                  
WHEELING       FAIR      79  64  60 S23G30    29.73F HX  81           
MORRIS*        MOCLDY    73  65  77 S10G16    29.73F                  
ROMEOVILLE*    FAIR      73  65  75 S12       29.75S                  
NORTHERLY ISL    N/A     77  61  57 SE14        N/A                   
$$


SKY/WX - Weather  TMP - Temperature  DP - Dewpoint  RH - Relative Humidity
WIND - Wind Direction/Speed PRES - Barometric Pressure